Date String (YYYY-MM-DD hh:mm:ss) UTC,Instrument flags,Ambient pressure (hPa),Sample flow (lpm),Bypass flow (lpm),Sample temperature (°C),Ambient temperature (°C),ASC tube jacket temperature (°C),LED temperature (°C),Box temperature (°C),Sample RH (%),Span deviation,Mass concentration (μg/m³),Mass concentration (μg/m³),Mass concentration (μg/m³)
DateTimeUTC,F1_M11,P_M11,Q1_M11,Q2_M11,T1_M11,T2_M11,T3_M11,T4_M11,T5_M11,U1_M11,ZSPAN_M11,X0_M11,X2_M11,X1_M11
2022-09-10 02:00:00,,0829.3,5.00,0.00,31.1,29.5,00.0,40.0,32.9,25.8,0002.1,0012.15,0009.68,0009.28
2022-09-10 02:01:00,,0829.4,4.98,0.00,31.1,29.5,00.0,40.0,32.9,25.8,0002.0,0011.92,0009.59,0009.21
2022-09-10 02:02:00,,0829.3,5.00,0.00,31.1,29.4,00.0,40.0,32.9,25.9,0002.0,0011.82,0009.52,0009.15
2022-09-10 02:03:00,,0829.4,5.01,0.00,31.1,29.4,00.0,40.0,32.8,25.9,0002.0,0011.77,0009.40,0009.03
2022-09-10 02:04:00,,0829.4,4.99,0.00,31.1,29.4,00.0,40.0,32.8,25.9,0001.5,0011.63,0009.28,0008.92
2022-09-10 02:05:00,,0829.4,5.00,0.00,31.1,29.3,00.0,39.9,32.8,25.9,0000.9,0011.54,0009.19,0008.83
2022-09-10 02:06:00,,0829.5,5.00,0.00,31.1,29.3,00.0,39.9,32.8,25.9,0001.0,0011.48,0009.11,0008.74
2022-09-10 02:07:00,,0829.5,5.00,0.00,31.0,29.2,00.0,39.9,32.7,26.0,0000.5,0011.44,0009.05,0008.67
2022-09-10 02:08:00,,0829.5,5.00,0.00,31.0,29.1,00.0,39.9,32.7,26.0,0000.3,0011.58,0009.02,0008.61
2022-09-10 02:09:00,,0829.4,5.00,0.00,31.0,29.0,00.0,39.9,32.6,26.0,0000.1,0011.59,0008.97,0008.55
2022-09-10 02:10:00,,0829.5,5.01,0.00,30.9,28.9,00.0,39.9,32.6,26.0,-000.0,0011.59,0008.95,0008.51
2022-09-10 02:11:00,,0829.5,4.99,0.00,30.9,28.8,00.0,39.8,32.6,26.1,0000.2,0011.52,0008.91,0008.50
2022-09-10 02:12:00,,0829.5,5.01,0.00,30.9,28.8,00.0,39.8,32.5,26.1,0000.0,0011.68,0008.92,0008.50
2022-09-10 02:13:00,,0829.5,5.00,0.00,30.8,28.6,00.0,39.8,32.5,26.1,-000.0,0012.27,0008.93,0008.48
2022-09-10 02:14:00,,0829.5,4.99,0.00,30.8,28.5,00.0,39.8,32.4,26.2,-000.1,0012.43,0008.95,0008.47
2022-09-10 02:15:00,,0829.4,5.00,0.00,30.8,28.5,00.0,39.7,32.4,26.5,-000.0,0012.58,0008.96,0008.47
2022-09-10 02:16:00,,0829.5,5.00,0.00,30.7,28.5,00.0,39.7,32.4,27.4,-000.0,0012.60,0008.98,0008.47
2022-09-10 02:17:00,,0829.5,5.00,0.00,30.7,28.4,00.0,39.7,32.3,26.8,0000.0,0012.60,0009.00,0008.47
2022-09-10 02:18:00,,0829.5,4.99,0.00,30.6,28.4,00.0,39.6,32.3,26.7,0000.4,0012.65,0008.98,0008.46
2022-09-10 02:19:00,,0829.4,4.99,0.00,30.6,28.5,00.0,39.6,32.3,26.7,0000.9,0012.79,0008.95,0008.44
2022-09-10 02:20:00,,0829.5,5.00,0.00,30.6,28.6,00.0,39.6,32.3,26.6,0001.2,0012.81,0008.95,0008.41
2022-09-10 02:21:00,,0829.5,5.01,0.00,30.6,28.4,00.0,39.6,32.2,26.6,0001.3,0012.79,0008.94,0008.39
2022-09-10 02:22:00,,0829.5,5.00,0.00,30.5,28.4,00.0,39.5,32.2,26.7,0001.0,0012.81,0008.92,0008.35
2022-09-10 02:23:00,,0829.5,5.00,0.00,30.5,28.4,00.0,39.5,32.2,26.7,0001.4,0012.70,0008.92,0008.32
2022-09-10 02:24:00,,0829.6,5.01,0.00,30.5,28.4,00.0,39.5,32.2,26.8,0001.4,0012.33,0008.91,0008.31
2022-09-10 02:25:00,,0829.6,4.99,0.00,30.5,28.4,00.0,39.5,32.1,26.8,0001.3,0012.16,0008.89,0008.30
2022-09-10 02:26:00,,0829.6,5.00,0.00,30.5,28.3,00.0,39.4,32.1,26.8,0001.2,0011.97,0008.87,0008.28
2022-09-10 02:27:00,,0829.6,5.00,0.00,30.4,28.4,00.0,39.4,32.1,26.8,0001.3,0012.00,0008.87,0008.28
2022-09-10 02:28:00,,0829.6,4.99,0.00,30.4,28.4,00.0,39.4,32.1,26.8,0001.1,0011.98,0008.87,0008.28
2022-09-10 02:29:00,,0829.5,5.01,0.00,30.4,28.5,00.0,39.4,32.1,26.8,0000.7,0011.95,0008.89,0008.29
2022-09-10 02:30:00,,0829.5,4.99,0.00,30.4,28.5,00.0,39.3,32.1,26.9,0000.4,0011.72,0008.90,0008.30
2022-09-10 02:31:00,,0829.5,5.00,0.00,30.4,28.5,00.0,39.3,32.1,26.9,0000.4,0011.65,0008.89,0008.31
2022-09-10 02:32:00,,0829.5,5.01,0.00,30.4,28.5,00.0,39.3,32.1,27.0,0000.6,0011.70,0008.92,0008.32
2022-09-10 02:33:00,,0829.5,5.00,0.00,30.4,28.6,00.0,39.3,32.1,26.9,0000.8,0011.82,0008.96,0008.33
2022-09-10 02:34:00,,0829.6,5.00,0.00,30.4,28.7,00.0,39.3,32.1,26.9,0000.6,0011.76,0008.90,0008.32
2022-09-10 02:35:00,,0829.6,5.00,0.00,30.4,28.7,00.0,39.2,32.1,26.9,0000.6,0011.76,0008.89,0008.31
2022-09-10 02:36:00,,0829.8,5.01,0.00,30.4,28.6,00.0,39.2,32.1,26.9,0000.3,0011.71,0008.87,0008.29
2022-09-10 02:37:00,,0829.9,5.00,0.00,30.4,28.6,00.0,39.2,32.1,27.0,0000.2,0011.66,0008.87,0008.29
2022-09-10 02:38:00,,0829.6,5.00,0.00,30.4,28.7,00.0,39.2,32.1,27.0,0000.5,0011.67,0008.87,0008.29
2022-09-10 02:39:00,,0829.6,5.00,0.00,30.4,28.7,00.0,39.2,32.1,27.0,0000.7,0011.68,0008.84,0008.26
2022-09-10 02:40:00,,0829.7,5.00,0.00,30.4,28.7,00.0,39.2,32.1,27.0,0000.7,0011.60,0008.79,0008.23
2022-09-10 02:41:00,,0829.7,4.99,0.00,30.4,28.6,00.0,39.2,32.1,27.0,0000.6,0011.64,0008.76,0008.22
2022-09-10 02:42:00,,0829.7,4.99,0.00,30.3,28.5,00.0,39.2,32.0,27.0,0000.3,0011.76,0008.75,0008.19
2022-09-10 02:43:00,,0829.8,5.01,0.00,30.3,28.4,00.0,39.2,32.0,27.0,0000.3,0011.69,0008.70,0008.17
2022-09-10 02:44:00,,0829.8,5.01,0.00,30.3,28.4,00.0,39.2,32.0,27.0,0000.3,0011.58,0008.65,0008.14
2022-09-10 02:45:00,,0829.8,5.00,0.00,30.3,28.3,00.0,39.2,32.0,27.0,0000.5,0011.68,0008.70,0008.16
2022-09-10 02:46:00,,0829.8,5.01,0.00,30.3,28.2,00.0,39.2,32.0,27.0,0001.0,0011.60,0008.71,0008.18
2022-09-10 02:47:00,,0829.8,4.99,0.00,30.2,28.1,00.0,39.1,31.9,27.0,0001.2,0011.62,0008.73,0008.18
2022-09-10 02:48:00,,0829.8,5.01,0.00,30.2,28.1,00.0,39.1,31.9,27.1,0001.5,0011.78,0008.74,0008.17
2022-09-10 02:49:00,,0829.8,4.99,0.00,30.2,28.1,00.0,39.1,31.9,27.1,0001.8,0012.17,0008.73,0008.17
2022-09-10 02:50:00,,0829.8,5.01,0.00,30.1,28.0,00.0,39.1,31.9,27.2,0001.4,0012.14,0008.73,0008.17
2022-09-10 02:51:00,,0829.8,5.00,0.00,30.1,28.0,00.0,39.0,31.8,27.2,0001.1,0012.21,0008.76,0008.17
2022-09-10 02:52:00,,0829.9,5.00,0.00,30.1,28.0,00.0,39.0,31.8,27.9,0000.8,0012.25,0008.78,0008.16
2022-09-10 02:53:00,,0830.0,5.00,0.00,30.1,28.1,00.0,39.0,31.8,28.0,0000.9,0012.36,0008.84,0008.17
2022-09-10 02:54:00,,0829.9,5.00,0.00,30.1,28.1,00.0,39.0,31.8,27.5,0000.6,0012.27,0008.83,0008.18
2022-09-10 02:55:00,,0829.9,4.99,0.00,30.1,28.1,00.0,39.0,31.7,27.4,0000.7,0012.30,0008.85,0008.20
2022-09-10 02:56:00,,0829.9,5.01,0.00,30.0,28.1,00.0,39.0,31.7,27.4,0000.6,0012.28,0008.82,0008.18
2022-09-10 02:57:00,,0829.9,4.98,0.00,30.0,28.1,00.0,38.9,31.8,27.5,0000.4,0012.43,0008.84,0008.19
2022-09-10 02:58:00,,0830.0,5.01,0.00,30.0,28.1,00.0,38.9,31.7,27.4,0000.9,0013.10,0008.87,0008.21
2022-09-10 02:59:00,,0830.1,5.00,0.00,30.0,28.1,00.0,38.9,31.7,27.4,0000.7,0013.31,0008.87,0008.22
